Preview of NWS' New Version of Forecast
This preview is not operational and should not be used for support decisions.

Regional Weather Roundup (RWR)

Issued by National Weather Service (NWS)

                            
000
ASUS43 KBIS 231902
RWRND 

NORTH DAKOTA REGIONAL WEATHER ROUNDUP
NATIONAL WEATHER SERVICE BISMARCK ND
100 PM CST SAT FEB 23 2019

NOTE: "FAIR" INDICATES FEW OR NO CLOUDS BELOW 12,000 FEET WITH NO
SIGNIFICANT WEATHER AND/OR OBSTRUCTIONS TO VISIBILITY.


NDZ001>003-009>011-017-232000-
NORTHWEST NORTH DAKOTA
  
CITY           SKY/WX    TMP DP  RH WIND       PRES   REMARKS
WILLISTON      SUNNY     11   3  70 W14       29.94R WCI  -5          
MINOT          SUNNY     16   7  67 W6        29.88F WCI   7          
MINOT AFB      SUNNY     12   5  72 W8          N/A  WCI   0          
$$
 
NDZ018>021-031>035-040>046-232000-
SOUTHWEST NORTH DAKOTA
  
CITY           SKY/WX    TMP DP  RH WIND       PRES   REMARKS
BISMARCK       MOSUNNY   14   6  70 W8        29.91F WCI   3          
DICKINSON      SUNNY     20  10  65 W16       29.86S WCI   6          
GARRISON         N/A      7   3  84 W7        29.89F WCI  -5          
HETTINGER ARPT SUNNY     17   9  70 W17       29.88F WCI   1          
$$
 
NDZ004>008-012>016-024-026-027-054-232000-
NORTHEAST NORTH DAKOTA
  
CITY           SKY/WX    TMP DP  RH WIND       PRES   REMARKS
GRAND FORKS    MOSUNNY   17  11  77 NW8       29.89F WCI   7          
GRND FRKS AFB  MOSUNNY   18  11  72 N12       29.89F WCI   6          
DEVILS LAKE    SUNNY     10   8  92 NW9       29.88F WCI  -3          
$$
 
NDZ022-023-025-028>030-036>039-047>053-232000-
SOUTHEAST NORTH DAKOTA
  
CITY           SKY/WX    TMP DP  RH WIND       PRES   REMARKS
FARGO          CLOUDY    24  19  81 NW9       29.90F HAZE    WCI  14  
JAMESTOWN      CLOUDY    14   9  80 W8        29.88F WCI   3          
$$